Showing default

GHGSAT-C7, 56209

Orbit data source: Space-Track

GHGSAT-C7, 56209 is a payload satellite owned by GHG (CA) in SSO that was launched on Sat, 15 Apr 2023 UTC via an FALCON 9 launch vehicle from the Air Force Western Test Range (AFWTR). Payload-class satellites include a variety of spacecraft equipped with specific instruments for various scientific and technological missions. These include communications satellites like Starlink; space stations such as the ISS; scientific satellites like the Hubble; Earth observation satellites from companies like Planet Labs, Umbra, and HawkEye 360; GPS; miniature CubeSats for education and research; and military/defense satellites.

Loading next visibility...
Identifier
56209, 2023-054AH
Orbit
SSO
Country
Flag of CACA
Related business
Manufacturer
UTIAS-SFL
Mission
Operational Commercial Earth Obs Sci
Bus & Motor
NEMO-V1, Unknown motor
Mass
15 kg wet, 15 kg dry
Launch date (UTC)
2023-04-15 (3 years ago)
Launch vehicle
FALCON 9
Launch site
Air Force Western Test Range (AFWTR)
Object type
Payload
Rocket body
Debris
Shape & HBR
Box, 1.0 m
Radar Cross Section
0.100 m², Medium (>0.1 m² and < 1m²)

Expand to show TLE details & history
Last TLE update: 10 hours ago

TLE from 10 hours ago
0 GHGSAT-C7
1 56209U 23054AH  26133.19438676  .00007488  00000-0  13933-3 0  9994
2 56209  97.3040  41.1376 0008673 148.8448 211.3319 15.49131216172979
Epoch: 2026-05-13T04:39Z
TLE epoch observation values (Epoch: 2026-05-13T04:39:55.016Z)
Latitude
0.00001°
Longitude
100.20046°
Altitude
427.437 km
Speed
7.652 km/s
True Right ascension
02h 44m 33s
True Declination
0° 00' 00"
Sunlit
Object was in daylight at epoch
Visualization orbit readout
Latitude
Unknown
Longitude
Unknown
Altitude
Unknown
Speed
Unknown
Apparent Right ascension
Unknown
Apparent Declination
Unknown
Sunlit
N/A
Visualization observer readout
Local Sidereal Time
23:17:22
Azimuth
Unknown
Elevation
Unknown
Doppler factor
Unknown
Orbital elements
Apogee altitude
422.082 km
Perigee altitude
410.296 km
Semi-major axis
6,794.326 km
Eccentricity
0.00087
Inclination
97.304°
RAAN
41.1376°
Arg. of periapsis
148.8448°
True anomaly
211.28027°
Mean anomaly
211.3319°
Eccentric anomaly
211.30608°
Mean motion
3.87546 °/min
Orbital period
92.89 mins
BSTAR
0.00013933
Loading maneuver chart data...
Computing Atmospheric mass density...
Loading historical data...
Loading historical data...
Loading historical data...
Loading historical data...
Loading historical data...
Loading historical data...
Loading historical data...

Documentation

Showing up to 5 results
|